| time (UTC) | temp F | wind direction | speed MPH | gust MPH | rain 1hr in | rain 24hr in | rain mn in | humidity % | barometer mb |
| 20260503032650 | 81 | 336 | 1.0 | 3.0 | 0.00 | 0.00 | 0.00 | 76 | 1019.7 |
| 20260503032148 | 81 | 4 | 0.0 | 3.0 | 0.00 | 0.00 | 0.00 | 76 | 1019.7 |
| 20260503031645 | 81 | 355 | 0.0 | 1.0 | 0.00 | 0.00 | 0.00 | 76 | 1019.7 |
| 20260503031143 | 81 | 31 | 2.0 | 4.0 | 0.00 | 0.00 | 0.00 | 76 | 1019.8 |
| 20260503030638 | 81 | 342 | 1.0 | 1.0 | 0.00 | 0.00 | 0.00 | 76 | 1019.8 |
| 20260503030135 | 81 | 339 | 0.0 | 4.0 | 0.00 | 0.00 | 0.00 | 76 | 1019.7 |
| 20260503025632 | 81 | 16 | 1.0 | 1.0 | 0.00 | 0.00 | 0.00 | 76 | 1019.8 |
| 20260503025130 | 81 | 344 | 1.0 | 6.0 | 0.00 | 0.00 | 0.00 | 76 | 1019.9 |
| 20260503024626 | 81 | 27 | 4.0 | 6.0 | 0.00 | 0.00 | 0.00 | 76 | 1019.6 |
| 20260503024124 | 81 | 47 | 2.0 | 3.0 | 0.00 | 0.00 | 0.00 | 76 | 1019.5 |
| 20260503023621 | 81 | 350 | 1.0 | 3.0 | 0.00 | 0.00 | 0.00 | 76 | 1019.5 |
| 20260503023118 | 81 | 353 | 0.0 | 1.0 | 0.00 | 0.00 | 0.00 | 75 | 1019.5 |
| 20260503022613 | 81 | 351 | 0.0 | 3.0 | 0.00 | 0.00 | 0.00 | 75 | 1019.5 |
| 20260503022108 | 81 | 328 | 0.0 | 4.0 | 0.00 | 0.00 | 0.00 | 75 | 1019.5 |
| 20260503021606 | 81 | 352 | 0.0 | 3.0 | 0.00 | 0.00 | 0.00 | 75 | 1019.4 |
| 20260503021102 | 82 | 7 | 0.0 | 7.0 | 0.00 | 0.00 | 0.00 | 75 | 1019.6 |
| 20260503020559 | 82 | 349 | 0.0 | 2.0 | 0.00 | 0.00 | 0.00 | 75 | 1019.4 |
| 20260503020056 | 82 | 5 | 0.0 | 2.0 | 0.00 | 0.00 | 0.00 | 75 | 1019.4 |
| 20260503015553 | 82 | 88 | 2.0 | 4.0 | 0.00 | 0.00 | 0.00 | 75 | 1019.3 |
| 20260503015050 | 82 | 18 | 1.0 | 4.0 | 0.00 | 0.00 | 0.00 | 74 | 1019.3 |
| 20260503014546 | 82 | 281 | 1.0 | 1.0 | 0.00 | 0.00 | 0.00 | 74 | 1019.2 |
| 20260503014044 | 82 | 42 | 1.0 | 2.0 | 0.00 | 0.00 | 0.00 | 74 | 1019.1 |
| 20260503013541 | 82 | 352 | 0.0 | 3.0 | 0.00 | 0.00 | 0.00 | 73 | 1019.0 |
| 20260503013039 | 82 | 23 | 2.0 | 2.0 | 0.00 | 0.00 | 0.00 | 73 | 1019.0 |
| 20260503012536 | 82 | 20 | 3.0 | 4.0 | 0.00 | 0.00 | 0.00 | 73 | 1019.0 |
| 20260503012032 | 82 | 348 | 0.0 | 2.0 | 0.00 | 0.00 | 0.00 | 73 | 1019.1 |
| 20260503011529 | 82 | 351 | 0.0 | 3.0 | 0.00 | 0.00 | 0.00 | 73 | 1019.1 |
| 20260503011026 | 82 | 355 | 1.0 | 7.0 | 0.00 | 0.00 | 0.00 | 72 | 1019.1 |
| 20260503010522 | 82 | 342 | 0.0 | 2.0 | 0.00 | 0.00 | 0.00 | 72 | 1019.0 |
| 20260503010020 | 82 | 333 | 2.0 | 4.0 | 0.00 | 0.00 | 0.00 | 72 | 1018.9 |
| 20260503005517 | 82 | 357 | 1.0 | 3.0 | 0.00 | 0.00 | 0.00 | 72 | 1018.9 |
| 20260503005014 | 82 | 4 | 1.0 | 7.0 | 0.00 | 0.00 | 0.00 | 72 | 1018.8 |
| 20260503004510 | 82 | 357 | 1.0 | 2.0 | 0.00 | 0.00 | 0.00 | 72 | 1018.6 |
| 20260503004009 | 82 | 342 | 0.0 | 4.0 | 0.00 | 0.00 | 0.00 | 72 | 1018.5 |
| 20260503003505 | 82 | 2 | 1.0 | 4.0 | 0.00 | 0.00 | 0.00 | 72 | 1018.6 |
| 20260503003002 | 82 | 30 | 1.0 | 2.0 | 0.00 | 0.00 | 0.00 | 72 | 1018.3 |
| 20260503002459 | 82 | 331 | 0.0 | 3.0 | 0.00 | 0.00 | 0.00 | 71 | 1018.4 |
| 20260503001955 | 82 | 224 | 2.0 | 7.0 | 0.00 | 0.00 | 0.00 | 70 | 1018.3 |
| 20260503001452 | 82 | 70 | 5.0 | 8.0 | 0.00 | 0.00 | 0.00 | 70 | 1018.1 |
| 20260503000949 | 82 | 13 | 2.0 | 8.0 | 0.00 | 0.00 | 0.00 | 71 | 1018.0 |
| 20260503000446 | 82 | 13 | 2.0 | 3.0 | 0.00 | 0.00 | 0.00 | 70 | 1018.0 |
| 20260502235944 | 83 | 350 | 1.0 | 7.0 | 0.00 | 0.00 | 0.00 | 70 | 1018.0 |
| 20260502235440 | 83 | 14 | 2.0 | 4.0 | 0.00 | 0.00 | 0.00 | 70 | 1017.8 |
| 20260502234938 | 83 | 235 | 1.0 | 2.0 | 0.00 | 0.00 | 0.00 | 70 | 1017.9 |
| 20260502234434 | 83 | 27 | 2.0 | 4.0 | 0.00 | 0.00 | 0.00 | 70 | 1017.6 |
| 20260502233932 | 83 | 23 | 1.0 | 3.0 | 0.00 | 0.00 | 0.00 | 70 | 1017.7 |
| 20260502233426 | 83 | 340 | 0.0 | 1.0 | 0.00 | 0.00 | 0.00 | 69 | 1017.5 |
| 20260502232924 | 83 | 347 | 1.0 | 4.0 | 0.00 | 0.00 | 0.00 | 69 | 1017.5 |
| 20260502232420 | 83 | 43 | 3.0 | 7.0 | 0.00 | 0.00 | 0.00 | 68 | 1017.5 |
| 20260502231917 | 83 | 286 | 3.0 | 6.0 | 0.00 | 0.00 | 0.00 | 68 | 1017.4 |
| 20260502231415 | 83 | 264 | 2.0 | 7.0 | 0.00 | 0.00 | 0.00 | 68 | 1017.4 |
| 20260502230913 | 83 | 346 | 1.0 | 6.0 | 0.00 | 0.00 | 0.00 | 68 | 1017.3 |
| 20260502230411 | 83 | 332 | 3.0 | 4.0 | 0.00 | 0.00 | 0.00 | 69 | 1017.0 |
| 20260502225908 | 83 | 1 | 1.0 | 3.0 | 0.00 | 0.00 | 0.00 | 69 | 1017.1 |
| 20260502225404 | 83 | 356 | 1.0 | 6.0 | 0.00 | 0.00 | 0.00 | 69 | 1016.9 |
| 20260502224901 | 84 | 349 | 2.0 | 4.0 | 0.00 | 0.00 | 0.00 | 68 | 1016.9 |
| 20260502224357 | 84 | 10 | 2.0 | 8.0 | 0.00 | 0.00 | 0.00 | 67 | 1016.9 |
| 20260502223854 | 84 | 241 | 3.0 | 7.0 | 0.00 | 0.00 | 0.00 | 66 | 1016.8 |
| 20260502223352 | 84 | 257 | 2.0 | 4.0 | 0.00 | 0.00 | 0.00 | 66 | 1017.0 |
| 20260502222850 | 84 | 5 | 1.0 | 3.0 | 0.00 | 0.00 | 0.00 | 65 | 1017.0 |
| 20260502222348 | 84 | 357 | 2.0 | 6.0 | 0.00 | 0.00 | 0.00 | 64 | 1016.9 |
| 20260502221843 | 85 | 265 | 2.0 | 6.0 | 0.00 | 0.00 | 0.00 | 63 | 1016.8 |
| 20260502221339 | 85 | 256 | 2.0 | 3.0 | 0.00 | 0.00 | 0.00 | 63 | 1016.7 |
| 20260502220837 | 85 | 160 | 6.0 | 9.0 | 0.00 | 0.00 | 0.00 | 63 | 1016.9 |
| 20260502220332 | 85 | 22 | 2.0 | 6.0 | 0.00 | 0.00 | 0.00 | 65 | 1016.8 |
| 20260502215829 | 86 | 71 | 5.0 | 9.0 | 0.00 | 0.00 | 0.00 | 65 | 1016.5 |
| 20260502215327 | 85 | 335 | 1.0 | 3.0 | 0.00 | 0.00 | 0.00 | 65 | 1016.3 |
| 20260502214824 | 86 | 100 | 5.0 | 9.0 | 0.00 | 0.00 | 0.00 | 64 | 1016.4 |
| 20260502214320 | 86 | 62 | 5.0 | 9.0 | 0.00 | 0.00 | 0.00 | 63 | 1016.5 |
| 20260502213817 | 86 | 341 | 2.0 | 9.0 | 0.00 | 0.00 | 0.00 | 63 | 1016.4 |
| 20260502213314 | 86 | 242 | 4.0 | 7.0 | 0.00 | 0.00 | 0.00 | 63 | 1016.4 |
| 20260502212813 | 86 | 75 | 3.0 | 9.0 | 0.00 | 0.00 | 0.00 | 63 | 1016.4 |
| 20260502212311 | 87 | 33 | 5.0 | 9.0 | 0.00 | 0.00 | 0.00 | 61 | 1016.2 |
| 20260502211808 | 87 | 345 | 2.0 | 7.0 | 0.00 | 0.00 | 0.00 | 60 | 1016.4 |
| 20260502211304 | 87 | 8 | 0.0 | 6.0 | 0.00 | 0.00 | 0.00 | 61 | 1016.1 |
| 20260502210801 | 87 | 21 | 3.0 | 6.0 | 0.00 | 0.00 | 0.00 | 59 | 1016.3 |
| 20260502210259 | 87 | 7 | 4.0 | 6.0 | 0.00 | 0.00 | 0.00 | 59 | 1016.4 |
| 20260502205755 | 87 | 120 | 3.0 | 7.0 | 0.00 | 0.00 | 0.00 | 58 | 1016.3 |
| 20260502205251 | 87 | 206 | 2.0 | 9.0 | 0.00 | 0.00 | 0.00 | 59 | 1016.4 |
| 20260502204749 | 88 | 35 | 2.0 | 6.0 | 0.00 | 0.00 | 0.00 | 57 | 1016.3 |
| 20260502204246 | 88 | 343 | 3.0 | 15.0 | 0.00 | 0.00 | 0.00 | 56 | 1016.5 |
| 20260502203743 | 88 | 345 | 2.0 | 8.0 | 0.00 | 0.00 | 0.00 | 57 | 1016.3 |
| 20260502203241 | 88 | 22 | 2.0 | 3.0 | 0.00 | 0.00 | 0.00 | 55 | 1016.4 |
| 20260502202735 | 87 | 313 | 3.0 | 6.0 | 0.00 | 0.00 | 0.00 | 55 | 1016.5 |
| 20260502202234 | 87 | 98 | 1.0 | 7.0 | 0.00 | 0.00 | 0.00 | 55 | 1016.6 |
| 20260502201731 | 87 | 88 | 5.0 | 7.0 | 0.00 | 0.00 | 0.00 | 58 | 1016.6 |
| 20260502201227 | 87 | 27 | 3.0 | 6.0 | 0.00 | 0.00 | 0.00 | 59 | 1016.8 |
| 20260502200723 | 87 | 50 | 3.0 | 11.0 | 0.00 | 0.00 | 0.00 | 61 | 1016.9 |
| 20260502200220 | 88 | 41 | 6.0 | 8.0 | 0.00 | 0.00 | 0.00 | 65 | 1016.9 |
| 20260502195719 | 88 | 41 | 6.0 | 8.0 | 0.00 | 0.00 | 0.00 | 65 | 1016.9 |
| 20260502195215 | 88 | 274 | 0.0 | 3.0 | 0.00 | 0.00 | 0.00 | 64 | 1016.8 |
| 20260502194711 | 88 | 268 | 2.0 | 6.0 | 0.00 | 0.00 | 0.00 | 63 | 1016.8 |
| 20260502194208 | 87 | 28 | 3.0 | 10.0 | 0.00 | 0.00 | 0.00 | 64 | 1016.8 |
| 20260502193704 | 87 | 24 | 2.0 | 7.0 | 0.00 | 0.00 | 0.00 | 64 | 1016.9 |
| 20260502193202 | 88 | 308 | 2.0 | 8.0 | 0.00 | 0.00 | 0.00 | 63 | 1017.0 |
| 20260502192656 | 88 | 147 | 3.0 | 9.0 | 0.00 | 0.00 | 0.00 | 62 | 1017.0 |
| 20260502192154 | 88 | 14 | 4.0 | 7.0 | 0.00 | 0.00 | 0.00 | 63 | 1016.8 |
| 20260502191651 | 89 | 61 | 4.0 | 11.0 | 0.00 | 0.00 | 0.00 | 63 | 1017.1 |
| 20260502191149 | 89 | 347 | 4.0 | 13.0 | 0.00 | 0.00 | 0.00 | 61 | 1017.1 |
| 20260502190646 | 89 | 284 | 2.0 | 6.0 | 0.00 | 0.00 | 0.00 | 61 | 1017.1 |
| 20260502190144 | 89 | 145 | 5.0 | 8.0 | 0.00 | 0.00 | 0.00 | 61 | 1017.1 |
| 20260502185638 | 90 | 10 | 1.0 | 9.0 | 0.00 | 0.00 | 0.00 | 61 | 1017.1 |
| 20260502185135 | 89 | 130 | 4.0 | 4.0 | 0.00 | 0.00 | 0.00 | 61 | 1017.3 |
| 20260502184631 | 89 | 64 | 5.0 | 11.0 | 0.00 | 0.00 | 0.00 | 60 | 1017.0 |
| 20260502184127 | 89 | 336 | 2.0 | 6.0 | 0.00 | 0.00 | 0.00 | 62 | 1017.3 |
| 20260502183623 | 89 | 119 | 2.0 | 7.0 | 0.00 | 0.00 | 0.00 | 61 | 1017.3 |
| 20260502183120 | 89 | 39 | 2.0 | 7.0 | 0.00 | 0.00 | 0.00 | 63 | 1017.4 |
| 20260502182615 | 89 | 1 | 3.0 | 6.0 | 0.00 | 0.00 | 0.00 | 63 | 1017.4 |
| 20260502182111 | 89 | 323 | 2.0 | 6.0 | 0.00 | 0.00 | 0.00 | 63 | 1017.5 |
| 20260502181608 | 89 | 340 | 1.0 | 7.0 | 0.00 | 0.00 | 0.00 | 64 | 1017.4 |
| 20260502181108 | 88 | 323 | 2.0 | 7.0 | 0.00 | 0.00 | 0.00 | 64 | 1017.8 |
| 20260502180604 | 89 | 208 | 3.0 | 13.0 | 0.00 | 0.00 | 0.00 | 63 | 1017.6 |
| 20260502164007 | 87 | 179 | 4.0 | 4.0 | 0.00 | 0.00 | 0.00 | 67 | 1019.0 |
| 20260502163503 | 88 | 28 | 2.0 | 7.0 | 0.00 | 0.00 | 0.00 | 67 | 1019.0 |
| 20260502163000 | 87 | 8 | 1.0 | 7.0 | 0.00 | 0.00 | 0.00 | 66 | 1019.0 |
| 20260502162457 | 87 | 162 | 2.0 | 7.0 | 0.00 | 0.00 | 0.00 | 66 | 1019.0 |
| 20260502161954 | 87 | 240 | 5.0 | 8.0 | 0.00 | 0.00 | 0.00 | 66 | 1018.9 |
| 20260502161450 | 87 | 258 | 3.0 | 6.0 | 0.00 | 0.00 | 0.00 | 67 | 1018.9 |
| 20260502160949 | 86 | 8 | 2.0 | 7.0 | 0.00 | 0.00 | 0.00 | 71 | 1019.1 |
| 20260502160446 | 86 | 271 | 5.0 | 7.0 | 0.00 | 0.00 | 0.00 | 71 | 1019.1 |
| 20260502151912 | 85 | 220 | 2.0 | 4.0 | 0.00 | 0.00 | 0.00 | 74 | 1019.6 |
| 20260502151408 | 84 | 326 | 1.0 | 7.0 | 0.00 | 0.00 | 0.00 | 74 | 1019.3 |
| 20260502150906 | 85 | 15 | 2.0 | 9.0 | 0.00 | 0.00 | 0.00 | 73 | 1019.4 |
| 20260502150403 | 85 | 213 | 3.0 | 6.0 | 0.00 | 0.00 | 0.00 | 72 | 1019.3 |
| 20260502130248 | 85 | 67 | 1.0 | 4.0 | 0.00 | 0.00 | 0.00 | 71 | 1019.2 |
| 20260502123735 | 83 | 333 | 2.0 | 9.0 | 0.00 | 0.00 | 0.00 | 75 | 1019.0 |
| 20260502123231 | 83 | 8 | 2.0 | 6.0 | 0.00 | 0.00 | 0.00 | 76 | 1018.9 |
| 20260502122728 | 83 | 332 | 1.0 | 4.0 | 0.00 | 0.00 | 0.00 | 75 | 1018.7 |
| 20260502122224 | 83 | 37 | 2.0 | 8.0 | 0.00 | 0.00 | 0.00 | 75 | 1018.5 |
| 20260502121722 | 83 | 75 | 3.0 | 8.0 | 0.00 | 0.00 | 0.00 | 75 | 1018.5 |
| 20260502121220 | 83 | 60 | 3.0 | 4.0 | 0.00 | 0.00 | 0.00 | 75 | 1018.3 |
| 20260502120716 | 83 | 345 | 2.0 | 2.0 | 0.00 | 0.00 | 0.00 | 75 | 1018.5 |
| 20260502120213 | 83 | 37 | 4.0 | 8.0 | 0.00 | 0.00 | 0.00 | 75 | 1018.3 |
| 20260502115711 | 83 | 312 | 1.0 | 7.0 | 0.00 | 0.00 | 0.00 | 76 | 1018.1 |
| 20260502115207 | 82 | 21 | 2.0 | 3.0 | 0.00 | 0.00 | 0.00 | 76 | 1018.2 |
| 20260502114703 | 82 | 26 | 1.0 | 6.0 | 0.00 | 0.00 | 0.00 | 77 | 1018.2 |
| 20260502114200 | 82 | 347 | 2.0 | 6.0 | 0.00 | 0.00 | 0.00 | 77 | 1018.0 |
| 20260502113657 | 82 | 34 | 4.0 | 9.0 | 0.00 | 0.00 | 0.00 | 78 | 1018.1 |
| 20260502113155 | 81 | 11 | 1.0 | 3.0 | 0.00 | 0.00 | 0.00 | 78 | 1018.1 |
| 20260502112653 | 81 | 56 | 2.0 | 3.0 | 0.00 | 0.00 | 0.00 | 78 | 1018.0 |
| 20260502112151 | 81 | 4 | 1.0 | 4.0 | 0.00 | 0.00 | 0.00 | 79 | 1017.9 |
| 20260502111648 | 81 | 37 | 2.0 | 3.0 | 0.00 | 0.00 | 0.00 | 79 | 1017.7 |
| 20260502111145 | 81 | 4 | 2.0 | 8.0 | 0.00 | 0.00 | 0.00 | 79 | 1017.7 |
| 20260502110643 | 81 | 306 | 1.0 | 4.0 | 0.00 | 0.00 | 0.00 | 79 | 1017.5 |
| 20260502110140 | 81 | 332 | 0.0 | 2.0 | 0.00 | 0.00 | 0.00 | 79 | 1017.5 |
| 20260502105637 | 81 | 311 | 1.0 | 1.0 | 0.00 | 0.00 | 0.00 | 79 | 1017.4 |
| 20260502105134 | 81 | 165 | 3.0 | 7.0 | 0.00 | 0.00 | 0.00 | 79 | 1017.4 |
| 20260502104631 | 80 | 340 | 1.0 | 4.0 | 0.00 | 0.00 | 0.00 | 79 | 1017.4 |
| 20260502104130 | 80 | 10 | 0.0 | 4.0 | 0.00 | 0.00 | 0.00 | 79 | 1017.2 |
| 20260502103627 | 80 | 44 | 1.0 | 7.0 | 0.00 | 0.00 | 0.00 | 79 | 1017.2 |
| 20260502103125 | 80 | 338 | 1.0 | 3.0 | 0.00 | 0.00 | 0.00 | 79 | 1017.1 |
| 20260502102621 | 80 | 357 | 2.0 | 3.0 | 0.00 | 0.00 | 0.00 | 79 | 1017.1 |
| 20260502102118 | 80 | 337 | 3.0 | 4.0 | 0.00 | 0.00 | 0.00 | 79 | 1017.0 |
| 20260502101616 | 80 | 340 | 1.0 | 3.0 | 0.00 | 0.00 | 0.00 | 79 | 1017.0 |
| 20260502101114 | 80 | 92 | 2.0 | 4.0 | 0.00 | 0.00 | 0.00 | 79 | 1016.8 |
| 20260502100613 | 80 | 197 | 2.0 | 7.0 | 0.00 | 0.00 | 0.00 | 79 | 1016.8 |
| 20260502100110 | 80 | 331 | 1.0 | 4.0 | 0.00 | 0.00 | 0.00 | 80 | 1016.8 |
| 20260502042759 | 81 | 351 | 0.0 | 2.0 | 0.00 | 0.00 | 0.00 | 78 | 1017.6 |
| 20260502042256 | 81 | 351 | 0.0 | 2.0 | 0.00 | 0.00 | 0.00 | 78 | 1017.6 |
| 20260502041754 | 81 | 37 | 3.0 | 4.0 | 0.00 | 0.00 | 0.00 | 78 | 1017.4 |
| 20260502041251 | 81 | 278 | 4.0 | 7.0 | 0.00 | 0.00 | 0.00 | 78 | 1017.8 |
| 20260502040748 | 81 | 0 | 2.0 | 4.0 | 0.00 | 0.00 | 0.00 | 78 | 1017.5 |
| 20260502040245 | 81 | 81 | 2.0 | 4.0 | 0.00 | 0.00 | 0.00 | 78 | 1017.4 |
| 20260502035741 | 81 | 43 | 3.0 | 6.0 | 0.00 | 0.00 | 0.00 | 78 | 1017.5 |
| 20260502035238 | 81 | 75 | 1.0 | 4.0 | 0.00 | 0.00 | 0.00 | 78 | 1017.6 |
| 20260502034735 | 81 | 29 | 3.0 | 4.0 | 0.00 | 0.00 | 0.00 | 78 | 1017.6 |
| 20260502034233 | 81 | 328 | 1.0 | 6.0 | 0.00 | 0.00 | 0.00 | 79 | 1017.5 |
| 20260502033731 | 81 | 30 | 2.0 | 6.0 | 0.00 | 0.00 | 0.00 | 79 | 1017.7 |
| 20260502033229 | 81 | 21 | 1.0 | 3.0 | 0.00 | 0.00 | 0.00 | 79 | 1017.7 |